COSMOS 1805

导读

**COSMOS 1805卫星摘要** COSMOS 1805(宇宙1805)是独联体(CIS)于1986年12月10日发射的军用侦察卫星,属于苏联/俄罗斯“宇宙”系列卫星家族。该系列广泛涵盖军事侦察、空间科学试验等任务,此星入轨后主要承担光学成像侦察任务,为战略情报获取提供支持,服役期间完成既定目标后已进入废弃轨道状态。

Basic Information
目录编号:
17191
目录名称:
COSMOS 1805
国际标识:
1986-097A
轨道中心:
EARTH
卫星名称:
COSMOS 1805
卫星全名:
--
卫星状态:
在轨 (已飞行14434 天)
发射日期:
1986-12-10 UTC
国别 :
俄罗斯(独联体) (CIS)
星等 :
--
Orbit Information
数据来源 国际轨道数据 AOE轨道数据
星历时间 2026-06-17T07:01:21+0800
13小时前
查看轨道信息
2026-06-17T02:00:00+0800
18小时前
查看轨道信息
半长轴 6789.368km 6789.423km
偏心率 0.0002759 0.0003538
轨道倾角 82.457° 82.468°
近地点辐角 127.171° 123.980°
升交点赤经 351.496° 351.714°
平近点角 232.979° 147.800°
近地点 409.357km 408.883km
远地点 413.105km 413.689km
周期 92.791分钟 92.792分钟
每日圈数 15.518823 15.518634
Detailed Information
使用方式:
暂无
2D Orbit Map
3D Orbit Map
Orbit Altitude Analysis Chart
Orbit Inclination Analysis Chart
Orbit Comprehensive Analysis Chart
View Comprehensive Chart